Regional Weather Roundup
Issued by NWS

Home | Current Version | Previous Version | Graphics & Text | Print | Product List | Glossary On
Versions: 1 2 3 4 5 6 7 8 9 10 11 12 13 14 15 16 17 18 19 20 21 22 23 24 25 26 27 28 29 30 31 32 33 34 35 36 37 38 39 40 41 42 43 44 45 46 47 48 49 50
000
ASUS43 KOAX 241710
RWRNE

WEATHER ROUNDUP FOR NEBRASKA
NATIONAL WEATHER SERVICE OMAHA NE
1200 PM CDT SUN JUL 24 2016

NOTES: SATELLITE DATA IS BEING USED TO AUGMENT CLOUD COVER ABOVE
       12000 FEET.
       "FAIR" INDICATES FEW OR NO CLOUDS BELOW 12,000 FEET WITH NO
       SIGNIFICANT WEATHER AND/OR OBSTRUCTIONS TO VISIBILITY.

  * THESE STATIONS DO NOT REPORT WEATHER SUCH AS RAIN...SNOW OR FOG.

NEZ001>004-019>022-054>056-241800-
NEBRASKA PANHANDLE

CITY           SKY/WX    TMP DP  RH WIND       PRES   REMARKS
SCOTTSBLUFF    SUNNY     81  54  39 E13       30.17R
ALLIANCE       MOSUNNY   77  55  46 E16       30.20R
CHADRON        SUNNY     81  44  27 E13       30.17R
KIMBALL        PTSUNNY   79  58  48 SE16      30.22R
SIDNEY         SUNNY     79  53  40 E16       30.21R
$$

NEZ057>060-069>072-079>082-241800-
SOUTHWEST NEBRASKA

CITY           SKY/WX    TMP DP  RH WIND       PRES   REMARKS
NORTH PLATTE   CLOUDY    77  57  50 E7        30.15S
IMPERIAL       PTSUNNY   82  52  35 E13       30.16R
LEXINGTON      MOSUNNY   80  59  48 NE9       30.11F
MCCOOK         SUNNY     84  59  42 NE22      30.08F
OGALLALA       CLOUDY    81  47  30 E16G23    30.15F
$$

NEZ005>010-023>029-035>040-094-241800-
NORTH CENTRAL NEBRASKA

CITY           SKY/WX    TMP DP  RH WIND       PRES   REMARKS
VALENTINE      CLOUDY    80  50  34 CALM      30.15R
AINSWORTH      CLOUDY    78  58  48 E5        30.15S
BROKEN BOW     CLOUDY    78  63  59 N9        30.15R
O`NEILL        CLOUDY    79  57  45 NW7       30.13R
ORD            CLOUDY    78  64  61 NW5       30.11R
THEDFORD       CLOUDY    79  55  43 E3        30.19R
$$

NEZ041-046>049-061>064-073>077-083>087-241800-
SOUTH CENTRAL NEBRASKA

CITY           SKY/WX    TMP DP  RH WIND       PRES   REMARKS
GRAND ISLAND   CLOUDY    79  64  60 VRB6      30.07R
AURORA         PTSUNNY   80  64  57 E3        30.05S
HASTINGS       CLOUDY    78  64  61 NE8       30.07R
HEBRON         DRIZZLE   78  68  71 N10       30.00S
HOLDREGE       PTSUNNY   80  59  48 NE14      30.09R
KEARNEY *      CLOUDY    79  61  53 N7        30.11R
YORK           CLOUDY    77  66  69 CALM      30.04F
$$

NEZ011>018-030>034-042>045-241800-
NORTHEAST NEBRASKA

CITY           SKY/WX    TMP DP  RH WIND       PRES   REMARKS
NORFOLK        CLOUDY    83  61  47 NE9       30.04S
ALBION         CLOUDY    77  65  65 NE6       30.08R
BLAIR          CLOUDY    83  67  58 N8        30.01R
FREMONT        MOSUNNY   83  59  43 N8        30.02S
TEKAMAH        MOSUNNY   84  65  52 N12       30.00R
WAYNE          CLOUDY    81  67  62 NE9       30.03F
$$

NEZ050>053-065>068-078-088>093-241800-
SOUTHEAST NEBRASKA

CITY           SKY/WX    TMP DP  RH WIND       PRES   REMARKS
LINCOLN        CLOUDY    83  63  50 N12       30.01S
OMAHA EPPLEY   CLOUDY    85  66  53 N8        29.98R
BEATRICE       CLOUDY    83  68  60 N10       29.98R
FALLS CITY     CLOUDY    87  79  76 N14       29.92R HX 101
NEBRASKA CITY  PTSUNNY   84  70  63 N9        29.97R
PLATTSMOUTH    PTSUNNY   85  63  47 NE10G18   29.99R
$$

NEZ044-045-051>053-067-241800-
OMAHA AREA

CITY           SKY/WX    TMP DP  RH WIND       PRES   REMARKS
OMAHA EPPLEY   CLOUDY    85  66  53 N8        29.98R
BLAIR          CLOUDY    83  67  58 N8        30.01R
FREMONT        MOSUNNY   83  59  43 N8        30.02S
MILLARD        CLOUDY    84  64  49 NE5       29.99R
OFFUTT AFB     CLOUDY    87  62  43 NE9       29.98S
PLATTSMOUTH    PTSUNNY   85  63  47 NE10G18   29.99R
WAHOO          FAIR      80  65  58 N7        30.01S
$$



USA.gov is the U.S. government's official web portal to all federal, state and local government web resources and services.